Simultaneous Nadir Overpasses (SNOs) Predictions

Prediction of SNOs between AQUA and METOP-B Satellite Orbit:

Table of predicted SNOs for the next 14.0 days since TLE Epoch: 10/15/2017
Index Date (AQUA) Time (AQUA) Lat,Lon (AQUA) SZA (AQUA ) Date (METOP-B) Time (METOP-B) Lat,Lon (METOP-B) SZA (METOP-B ) Distance(km) Time Diff (sec)
1 10/17/2017 17:52:43 73.62, -93.58 83.05 10/17/2017 17:51:31 73.53, -94.35 82.97 26.23 72
2 10/17/2017 18:42:12 -73.79, 73.68 96.76 10/17/2017 18:42:07 -73.81, 73.64 96.75 2.00 5
3 10/17/2017 19:31:41 73.87,-118.86 83.34 10/17/2017 19:32:46 73.85,-118.91 83.31 2.83 65
4 10/20/2017 13:27:00 73.75, -27.42 84.19 10/20/2017 13:25:49 73.76, -27.39 84.21 1.56 71
5 10/20/2017 14:16:27 -73.81, 140.08 95.73 10/20/2017 14:16:30 -73.79, 140.01 95.75 3.30 3
6 10/20/2017 15:05:56 73.90, -52.47 84.37 10/20/2017 15:07:08 73.89, -52.43 84.36 2.01 72
7 10/23/2017 09:01:13 73.73, 39.06 85.17 10/23/2017 09:00:11 73.74, 38.97 85.18 3.03 62
8 10/23/2017 09:50:41 -73.84,-153.55 94.71 10/23/2017 09:50:51 -73.82,-153.51 94.73 3.05 10
9 10/23/2017 10:40:14 74.14, 13.42 85.62 10/23/2017 10:41:24 74.16, 14.66 85.63 38.00 70
10 10/26/2017 04:35:28 73.78, 105.40 86.19 10/26/2017 04:34:33 73.76, 105.44 86.18 1.85 55
11 10/26/2017 05:24:55 -73.83, -87.08 93.75 10/26/2017 05:25:13 -73.84, -87.05 93.74 1.50 18
12 10/26/2017 06:14:34 74.45, 79.14 86.90 10/26/2017 06:15:40 74.48, 81.90 86.92 82.15 66
13 10/29/2017 00:09:42 73.78, 171.83 87.14 10/29/2017 00:08:55 73.79, 171.90 87.15 2.29 47
14 10/29/2017 00:59:09 -73.84, -20.64 92.80 10/29/2017 00:59:36 -73.81, -20.70 92.82 3.08 27




NCC Satellite Simultaneous Nadir Overpasses (SNOs) Prediction Service
